Content
SEND FEEDBACK

Daily
Averages
Monthly
Summary
United Kingdom

CORBY, ENGLAND


Home > Europe > United Kingdom > England
Elevation: 362 feet     Latitude: 52 04N     Longitude: 000 37W

WEATHER
 
SELECT A DAY
Number of Records: 74,557;   Date Range: 7/1/96 - 11/27/14
 
SHARE

PRINT THIS DATA

[ ← Previous Day ]
WEATHER ALMANAC - OCTOBER 25, 2013
[ Next Day → ]
[ °C ]   °F
Weather ElementAverageHighLow
Temperature61.7 °F64.4 °F (12:20 pm)57.2 °F (8:20 am)
Dewpoint57.2 °F59 °F (9:50 am)55.4 °F (3:50 pm)
Humidity85.4 %100 % (8:20 am)77 % (12:20 pm)
Barometer29.60 in29.62 in (10:50 am)29.56 in (8:20 am)
Wind Speed17.3 mph23 mph (3:50 pm)
Wind Gust26.5 mph (2:50 pm)
Weather ElementAverage
Visibility6.2 mi
Wind DirectionSSW (200 °)

Weather ElementTotal
Precipitation---
Heating Degree Days4.2 (Base 65)
Growing Degree Days10.8 (Base 50)
Averaged from 20 records on October 25, 2013
WEATHER CONDITIONS BREAKOUT
WIND DIRECTION BREAKOUT
WEATHER BY HOUR - OCTOBER 25, 2013
[ °C ]   °F
Local TimeTemperatureDewpointHumidityBarometerVisibilityWind DirectionWind SpeedGust SpeedPrecipitationEventsConditions
8:20 AM57.2 °F57.2 °F100 %29.56 in6.2 miSSE (160°)12.7 mphMostly Cloudy
8:50 AM57.2 °F57.2 °F100 %29.56 in6.2 miSouth (170°)10.4 mphMostly Cloudy
9:20 AM59.0 °F57.2 °F94 %29.59 in6.2 miSouth (170°)11.5 mphMostly Cloudy
9:50 AM59.0 °F59.0 °F100 %29.59 in6.2 miSSW (200°)12.7 mphMostly Cloudy
10:20 AM60.8 °F59.0 °F94 %29.59 in6.2 miSSW (200°)17.3 mphScattered Clouds
10:50 AM60.8 °F59.0 °F94 %29.62 in6.2 miSSW (210°)17.3 mphScattered Clouds
11:20 AM62.6 °F59.0 °F88 %29.59 in6.2 miSSW (210°)15.0 mphScattered Clouds
11:50 AM62.6 °F59.0 °F88 %29.62 in6.2 miSW (220°)18.4 mphScattered Clouds
12:20 PM64.4 °F57.2 °F77 %29.62 in6.2 miSW (220°)21.9 mphPartly Cloudy
12:50 PM64.4 °F57.2 °F77 %29.62 in6.2 miSW (220°)20.7 mphPartly Cloudy
1:20 PM64.4 °F57.2 °F77 %29.62 in6.2 miSSW (210°)17.3 mphPartly Cloudy
1:50 PM62.6 °F57.2 °F82 %29.62 in6.2 miSSW (200°)17.3 mphPartly Cloudy
2:20 PM64.4 °F57.2 °F77 %29.62 in6.2 miSSW (200°)20.7 mphPartly Cloudy
2:50 PM62.6 °F57.2 °F82 %29.62 in6.2 miSSW (200°)15.0 mph26.5 mphPartly Cloudy
3:20 PM64.4 °F57.2 °F77 %29.62 in6.2 miSSW (200°)21.9 mphPartly Cloudy
3:50 PM62.6 °F55.4 °F77 %29.62 in6.2 miSSW (210°)23.0 mphPartly Cloudy
4:20 PM62.6 °F55.4 °F77 %29.59 in6.2 miSSW (200°)18.4 mphScattered Clouds
4:50 PM60.8 °F55.4 °F82 %29.59 in6.2 miSSW (210°)19.6 mphScattered Clouds
5:20 PM60.8 °F55.4 °F82 %29.59 in6.2 miSSW (200°)18.4 mphScattered Clouds
5:50 PM60.8 °F55.4 °F82 %29.59 in6.2 miSouth (190°)17.3 mphPartly Cloudy
Hourly data recorded from EGTC, located miles away from Corby, England







STORIES FROM OUR PARTNERS